Location: McFarlands Corners
(41.4117°N, 81.3382°W)
Time: 17:12:39
(UTC+00:00)

SR - Pass Details

Date: 22 February 2026
Orbit: 572 x 849 km, 66.7° (Epoch: 12 March)

Event Time Altitude Azimuth Distance (km) Brightness Sun altitude
Rises 09:09:28 0° 222° (SW) 2,767 - -34.3°
Reaches altitude 10° 09:11:42 10° 228° (SW) 1,882 - -33.9°
Maximum altitude 09:15:47 50° 304° (NW) 762 - -33.2°
Exits shadow 09:19:28 14° 18° (NNE) 1,745 ? -32.6°
Drops below altitude 10° 09:20:05 10° 20° (NNE) 1,982 ? -32.4°
Sets 09:22:29 0° 26° (NNE) 2,931 ? -32.0°
